Theta_e
315 315 313 310 306 303 303 306 306 306 305 306 309 310 311 310 310 310 311 311 311 313 315 316 315 316 315 314 313 313 313 313 313 310 310 311 310 308 307 307 307 306 305
315 315 312 308 306 304 303 306 307 306 306 305 308 309 310 311 311 312 311 311 312 313 314 315 316 315 314 314 314 313 313 313 314 311 310 310 310 309 307 307 307 306 306
315 314 311 307 306 304 303 306 307 306 306 305 306 308 309 311 311 312 312 312 312 313 314 314 315 315 315 314 314 314 313 312 313 312 311 311 310 309 308 307 307 307 306
314 313 311 307 306 305 303 305 307 306 306 305 306 306 308 311 311 312 312 312 312 313 314 315 315 315 315 315 314 314 315 312 311 311 312 311 310 309 308 308 308 307 307
313 313 310 307 306 305 303 304 306 307 306 306 306 306 307 310 311 311 312 312 312 313 314 314 314 315 315 315 315 315 314 313 312 312 312 311 310 309 308 309 308 308 307
313 312 309 307 306 306 304 303 304 306 306 306 306 306 306 308 311 311 311 312 312 313 313 315 314 314 315 315 314 313 314 314 313 312 312 312 311 310 309 309 309 308 307
312 311 309 306 306 305 305 304 303 304 305 306 306 307 306 307 310 311 311 311 311 311 312 313 314 314 315 315 315 314 313 312 313 313 313 313 312 311 310 310 310 308 308
312 311 308 306 306 305 305 304 304 303 303 305 306 307 307 307 307 310 310 310 310 311 311 311 311 312 312 313 313 314 313 312 312 311 311 312 312 313 311 309 310 308 307
311 310 308 306 306 305 305 304 304 303 303 303 304 306 307 307 307 307 309 309 309 311 310 310 311 311 311 311 312 313 313 312 311 311 311 310 311 310 310 310 309 307 307
310 310 308 307 306 306 305 305 304 304 303 302 302 303 305 307 308 308 308 308 310 309 310 311 311 312 311 311 311 311 312 312 312 311 311 310 309 308 309 308 308 307 307
309 309 308 307 306 306 306 305 304 304 303 302 302 302 303 305 307 307 308 308 308 309 309 310 312 311 312 312 311 311 311 312 311 311 311 310 310 310 310 308 309 308 308
308 308 307 307 307 306 305 305 304 303 303 302 302 301 302 303 305 306 307 307 308 308 309 310 311 312 312 312 312 311 311 310 310 310 310 310 310 310 310 309 309 308 307
307 307 307 307 306 305 305 304 304 303 302 302 301 301 301 302 304 306 307 308 307 307 307 309 310 310 311 311 311 311 311 310 309 309 310 310 310 310 309 309 307 307 306
307 306 306 305 305 304 304 303 303 303 302 302 301 301 301 303 304 305 305 305 306 306 307 307 308 310 311 311 311 311 311 310 310 309 309 310 310 309 309 308 308 307 307
305 305 304 303 303 303 303 301 302 302 301 301 301 301 303 304 305 305 305 305 305 306 306 307 310 310 311 311 311 310 310 310 310 309 308 308 309 309 309 309 308 308 307
303 303 303 303 303 303 302 301 301 300 301 300 300 303 304 304 304 305 305 305 306 306 308 310 310 310 310 310 310 310 310 310 310 308 307 307 307 308 309 308 308 308 308
305 304 304 303 302 302 302 302 301 299 299 299 301 302 302 302 303 304 305 305 305 306 307 308 308 310 310 309 309 309 309 309 309 307 306 307 307 306 306 308 307 307 306
304 304 304 302 302 301 301 300 300 300 300 299 299 299 301 302 302 303 305 305 306 307 307 307 308 308 309 308 308 308 308 308 308 307 307 307 306 306 305 305 305 305 305
303 303 302 301 300 300 300 299 299 299 299 299 298 298 299 301 302 302 302 303 304 304 305 306 306 306 307 307 307 307 306 306 306 306 306 306 306 305 305 304 303 303 302
302 300 300 300 301 300 299 299 298 297 297 296 296 297 298 298 298 299 300 299 300 301 302 302 303 303 303 303 304 304 304 304 304 304 305 304 304 304 304 303 302 301 300
299 299 298 296 295 294 292 292 292 292 292 292 292 293 294 295 295 295 296 294 295 296 297 297 298 299 300 300 300 300 300 300 301 301 301 302 302 302 302 301 300 300 299
295 294 293 293 292 291 291 290 290 290 290 290 290 290 290 291 291 292 292 293 293 293 293 293 294 294 295 295 296 296 296 297 298 298 298 299 299 299 298 298 298 298 298
295 298 293 292 291 291 290 290 290 289 289 289 289 289 289 289 289 289 289 289 289 289 290 290 291 291 291 291 292 293 294 294 295 295 295 295 295 295 296 296 295 295 296
300 292 292 291 291 291 291 290 290 290 290 290 290 290 290 290 289 289 289 289 289 289 289 289 289 289 289 289 289 289 289 289 289 290 292 293 293 293 292 292 292 292 292
292 292 291 291 291 291 290 289 289 288 288 287 287 288 287 288 288 288 288 288 288 288 288 288 288 288 288 288 288 288 288 288 288 287 287 287 287 288 288 288 288 289 289
291 291 290 290 289 288 288 287 287 286 286 286 286 286 286 286 286 286 286 286 286 286 286 286 286 287 287 287 287 287 287 287 287 287 287 287 287 285 285 286 286 286 287
Wind_Speed
33 29 26 23 20 17 14 14 13 12 12 13 11 8 5 7 6 4 7 11 15 13 16 17 19 21 25 27 22 20 24 32 40 33 29 24 21 17 17 14 12 11 10
32 30 27 24 21 18 17 16 15 13 13 13 13 10 7 6 7 7 9 11 15 16 16 18 20 25 24 22 15 18 25 28 35 35 31 27 23 19 16 13 11 11 8
32 31 29 26 23 20 18 17 15 14 13 14 13 12 10 8 10 10 9 11 13 15 15 16 20 22 21 23 19 12 17 27 30 34 32 27 25 21 18 16 13 11 8
33 32 30 28 24 21 19 17 16 15 14 14 14 13 11 9 10 12 10 11 12 13 14 15 16 19 22 21 20 19 14 26 33 32 33 33 29 26 22 18 14 11 10
32 32 30 27 24 22 20 18 17 16 14 14 14 13 13 11 10 13 13 11 11 13 11 15 17 18 17 15 15 16 16 25 32 33 32 31 31 29 23 19 19 15 12
33 32 30 29 27 25 22 20 18 17 16 15 14 13 13 13 11 15 16 14 12 12 12 13 16 17 16 15 12 10 11 19 27 35 35 32 30 28 26 23 21 21 17
33 32 33 31 29 26 24 21 19 18 16 16 15 14 13 14 13 12 17 16 15 13 13 14 15 16 15 16 15 13 12 14 20 24 30 33 33 28 23 25 20 20 19
34 34 34 32 29 27 25 22 20 19 17 16 16 15 15 15 16 14 16 17 16 16 16 15 16 16 16 17 18 19 18 18 18 21 24 33 29 29 24 20 20 21 21
36 36 34 32 31 29 27 24 22 20 19 17 17 17 17 17 17 17 15 17 17 15 15 15 17 17 17 17 18 19 20 19 19 16 17 21 34 31 27 21 26 21 23
37 36 33 32 31 29 26 24 22 20 17 17 17 17 18 17 17 17 18 18 17 17 16 15 14 15 17 17 19 20 22 21 19 18 19 18 21 26 29 21 21 24 24
34 33 33 31 29 27 25 24 23 21 21 19 18 18 18 17 18 18 18 20 20 18 16 13 13 13 14 16 16 19 22 20 21 21 21 19 20 21 23 25 24 23 23
34 34 34 32 30 28 26 25 24 23 21 20 20 19 18 17 17 17 17 20 22 20 17 15 14 14 15 14 17 17 22 21 21 24 24 23 24 22 24 25 25 24 25
36 36 35 32 30 28 28 27 26 23 22 21 20 20 17 16 15 14 16 17 18 19 18 18 17 17 17 16 14 16 21 23 23 23 28 28 24 19 23 23 22 21 23
37 36 34 32 31 29 27 26 24 23 22 21 21 19 17 15 12 11 12 13 15 16 16 17 17 17 17 16 18 20 19 18 22 24 25 24 28 26 24 23 22 21 21
36 35 34 31 29 29 26 24 21 20 18 18 19 18 18 14 12 11 10 10 14 15 14 14 14 12 15 15 16 19 19 17 20 22 23 23 26 26 26 24 24 25 26
38 36 34 32 31 29 29 27 24 20 20 19 17 17 16 14 12 11 9 11 13 14 12 13 14 13 12 14 15 18 15 20 23 22 23 22 23 25 27 27 25 26 30
38 37 34 34 33 32 28 26 28 23 20 19 19 18 17 15 14 12 10 10 11 13 11 10 11 12 11 5 9 12 16 15 17 17 19 21 22 24 26 27 28 28 28
37 36 36 35 31 29 26 25 23 22 24 22 20 20 19 18 16 14 12 11 12 11 10 9 8 8 8 6 5 4 6 6 10 14 17 17 19 23 24 25 27 29 28
40 38 35 32 30 26 25 23 21 20 19 18 19 17 15 17 18 17 15 14 13 10 10 9 8 8 8 9 9 9 9 8 8 8 11 12 14 15 17 18 20 22 23
38 36 34 32 29 27 24 23 22 20 19 18 16 14 12 12 14 16 17 17 16 14 14 12 10 9 9 9 9 9 10 10 12 12 12 12 13 14 15 16 19 22 23
41 39 33 29 27 25 23 21 19 18 18 16 14 12 12 13 13 12 11 12 13 13 14 14 13 14 15 16 15 14 13 13 14 13 12 11 12 14 15 16 16 17 18
39 35 29 26 25 23 21 20 19 18 16 15 13 12 11 12 11 11 11 11 11 10 10 11 11 12 13 14 13 13 12 13 15 15 14 14 14 14 14 14 15 17 17
32 29 30 28 25 23 22 20 19 18 17 16 15 14 13 11 10 8 7 6 6 6 7 8 10 11 12 12 13 15 15 15 15 16 16 16 17 18 17 16 16 16 16
30 31 30 29 27 26 24 24 23 21 20 18 17 15 14 12 11 9 7 5 5 4 4 4 4 6 7 9 11 13 14 16 17 18 19 19 18 18 18 18 18 18 18
33 32 32 32 31 30 29 27 24 22 21 19 17 16 14 13 11 10 8 6 4 3 2 2 3 4 6 7 8 8 10 12 13 15 18 21 22 21 20 19 19 19 19
36 35 35 33 32 30 28 27 25 23 21 19 17 15 14 12 11 10 8 7 5 3 1 1 2 4 5 6 7 8 10 11 13 13 15 17 18 19 20 20 19 19 18
Wind_Direction
197 197 198 199 202 201 197 194 190 186 184 182 182 178 168 168 166 167 169 167 166 161 155 158 165 165 174 179 176 183 180 170 157 152 152 156 162 164 161 163 152 153 134
196 197 198 199 201 199 198 194 189 188 186 184 184 184 179 172 160 151 147 165 166 170 169 173 173 179 186 184 181 184 178 177 175 163 163 168 175 176 176 179 170 166 146
197 197 197 198 200 199 198 196 190 189 188 185 186 188 187 184 171 162 153 161 168 177 182 181 184 190 192 197 196 183 204 196 195 178 175 183 186 187 190 190 191 185 150
199 198 199 199 199 198 197 195 193 190 189 188 185 190 191 187 178 171 166 168 175 178 179 179 185 192 194 209 214 221 221 201 198 195 186 188 192 190 198 201 200 197 196
201 201 200 199 198 198 198 195 194 192 189 191 189 189 192 191 188 181 179 170 177 185 180 187 191 199 204 212 212 214 213 205 204 203 200 199 199 202 200 206 212 212 214
204 204 202 200 198 199 199 197 195 195 194 195 194 194 195 195 195 195 190 188 179 183 184 184 182 191 195 196 205 216 230 217 214 214 211 213 217 212 207 209 215 217 217
208 206 204 202 201 200 200 199 199 198 199 197 199 200 199 198 202 204 196 197 196 193 190 191 192 199 212 220 222 225 215 217 234 238 232 230 227 225 214 221 228 231 231
209 208 206 204 203 203 202 202 202 202 203 202 202 203 205 204 205 208 199 202 210 211 208 208 211 214 220 227 229 227 229 220 228 231 242 241 238 232 222 234 230 230 228
210 209 207 205 205 205 205 204 204 207 207 206 205 207 210 211 210 211 212 210 213 214 224 226 221 222 225 230 236 238 240 233 229 226 235 241 239 237 229 244 233 236 240
208 208 207 208 209 210 208 206 207 209 210 211 210 210 213 215 216 214 215 217 215 218 224 230 231 224 227 234 243 244 242 249 239 221 231 231 237 237 239 243 244 249 250
205 204 205 207 210 212 211 210 209 208 208 211 214 215 216 212 216 218 219 219 216 220 229 234 231 228 233 236 240 248 245 251 228 236 232 229 230 231 238 237 248 244 254
203 201 201 203 205 209 210 207 206 209 209 210 213 216 218 216 219 222 223 221 219 217 222 228 234 237 238 243 243 246 245 239 246 231 232 232 232 240 239 244 255 253 252
200 198 198 199 202 204 206 206 206 205 209 209 212 217 219 220 221 219 215 217 221 220 217 223 228 241 244 240 245 247 244 239 239 237 236 241 231 247 259 250 256 250 251
197 196 196 196 195 197 200 205 205 208 207 208 211 213 213 206 211 220 214 225 217 216 213 222 232 245 240 245 242 248 239 243 249 249 247 239 238 245 249 251 250 247 247
196 194 193 192 191 190 195 196 199 204 210 214 210 212 201 197 200 205 208 217 205 201 212 220 234 246 245 243 250 241 250 247 257 251 246 244 244 243 248 256 248 248 251
189 188 188 184 183 185 185 186 190 199 200 201 202 198 194 198 199 202 203 197 194 200 216 225 232 229 245 255 251 254 250 247 256 256 250 245 244 245 248 253 258 256 254
189 184 180 180 179 181 183 191 185 181 188 191 191 192 190 196 199 198 193 189 196 210 219 239 249 244 236 253 278 252 255 240 253 268 257 250 248 249 252 253 255 259 263
180 175 174 175 178 177 182 184 188 187 186 186 191 199 201 194 195 199 200 200 207 208 210 220 220 217 224 233 253 279 288 277 265 260 260 259 259 261 259 262 263 263 267
173 172 174 172 171 175 176 178 180 183 185 192 195 198 197 196 200 201 201 207 209 204 206 215 219 224 226 231 246 263 267 267 270 273 278 271 261 263 268 268 269 267 266
172 166 166 165 165 168 168 170 170 172 177 180 178 178 176 176 186 196 202 210 217 213 217 223 223 227 234 240 245 250 260 275 277 272 267 266 268 269 268 267 268 268 268
164 158 163 161 162 166 164 164 172 179 180 181 184 181 176 176 171 170 180 191 202 208 216 222 228 240 247 254 259 263 267 273 272 275 270 264 265 267 268 271 274 276 277
160 155 157 161 158 160 163 165 168 171 172 171 167 168 175 179 180 184 188 190 189 199 207 216 223 232 239 246 248 252 256 257 258 262 268 273 276 276 274 277 284 284 283
150 164 162 159 161 161 160 161 164 166 161 155 153 154 158 162 164 169 182 190 201 217 224 230 231 236 243 247 245 248 251 256 262 266 269 270 271 273 278 280 279 280 285
175 165 160 158 157 156 157 155 153 150 147 144 143 142 143 144 144 147 151 154 166 193 225 246 260 264 266 267 270 270 268 262 260 260 261 262 263 265 268 272 274 276 279
166 160 158 154 154 153 151 149 147 146 145 145 145 144 144 142 141 142 145 146 151 172 209 241 260 266 268 273 280 282 278 279 280 280 272 266 263 260 262 267 269 270 273
159 155 151 150 151 150 148 147 146 145 144 142 142 144 142 139 138 135 133 130 128 130 113 344 310 308 306 304 298 293 288 285 284 284 286 282 277 271 265 263 265 269 268